This demonstration page uses our WeatherBlox Daily Observations layout. Learn more.

Left ArrowRight Arrow

30.21309, -93.2044

Hourly Observations for August 23, 2020

Temp ( °F °C ) Dew Point ( °F °C ) Humidity (%) Winds ( mph kmh ) Pressure ( in mb ) Visibility ( mi km ) Precip ( " mm )
12:15 am 00:15 Clear 76 24.6 70 21.3 82 82 Calm 29.93 1014 10 16 0.00 0.00
12:35 am 00:35 Clear 76 24.5 70 21.3 82 82 ENE 3 6 29.93 1014 10 16 0.00 0.00
12:55 am 00:55 Clear 75 23.9 71 21.7 88 88 Calm 29.93 1014 10 16 0.00 0.00
1:15 am 01:15 Clear 75 23.7 71 21.8 89 89 Calm 29.93 1014 10 16 0.00 0.00
1:35 am 01:35 Clear 74 23.2 71 21.5 90 90 Calm 29.92 1013 10 16 0.00 0.00
1:55 am 01:55 Clear 74 23.1 71 21.7 92 92 Calm 29.93 1014 10 16 0.00 0.00
2:15 am 02:15 Clear 74 23.5 71 21.4 88 88 Calm 29.93 1014 10 16 0.00 0.00
2:35 am 02:35 Clear 74 23.5 70 21.3 88 88 Calm 29.93 1014 10 16 0.00 0.00
2:55 am 02:55 Clear 75 23.7 71 21.4 87 87 Calm 29.93 1014 10 16 0.00 0.00
3:15 am 03:15 Clear 75 23.9 71 21.4 86 86 NNW 3 6 29.92 1013 10 16 0.00 0.00
3:35 am 03:35 Clear 75 23.7 70 21.3 86 86 Calm 29.93 1014 10 16 0.00 0.00
3:55 am 03:55 Clear 74 23.6 71 21.5 88 88 Calm 29.93 1014 10 16 0.00 0.00
4:15 am 04:15 Clear 74 23.6 71 21.6 89 89 NNW 3 6 29.92 1013 10 16 0.00 0.00
4:35 am 04:35 Clear 74 23.6 71 21.5 88 88 Calm 29.93 1014 10 16 0.00 0.00
4:55 am 04:55 Clear 75 23.8 71 21.5 87 87 Calm 29.93 1014 10 16 0.00 0.00
5:15 am 05:15 Clear 74 23.5 71 21.5 89 89 NNW 5 7 29.93 1014 10 16 0.00 0.00
5:35 am 05:35 Clear 74 23.2 71 21.6 91 91 N 3 6 29.93 1014 10 16 0.00 0.00
6:00 am 06:00 Mostly Clear 73 23 72 22 94 94 N 3 6 29.94 1014 10 16 0.00 0.00
6:50 am 06:50 Mostly Sunny 73 23 72 22 94 94 NNW 3 6 29.95 1014 10 16 0.00 0.00
7:50 am 07:50 Mostly Sunny 75 24 72 22 89 89 N 3 6 29.96 1015 10 16 0.00 0.00
8:50 am 08:50 Mostly Sunny 81 27 73 23 79 79 NNE 6 9 29.98 1015 10 16 0.00 0.00
9:50 am 09:50 Mostly Sunny 84 29 75 24 74 74 ENE 7 11 29.99 1016 10 16 0.00 0.00
10:55 am 10:55 Mostly Sunny 88 31 73 23 62 62 NE 10 17 29.99 1016 10 16 0.00 0.00
11:50 am 11:50 Partly Cloudy 90 32 72 22 55 55 NE 10 17 29.99 1016 10 16 0.00 0.00
12:50 pm 12:50 Partly Cloudy 90 32 72 22 55 55 NE 10 17 29.97 1015 10 16 0.00 0.00
1:50 pm 13:50 Partly Cloudy 91 33 72 22 52 52 NE 12 19 29.96 1015 10 16 0.00 0.00
2:50 pm 14:50 Partly Cloudy 93 34 70 21 47 47 ENE 12 19 29.93 1014 10 16 0.00 0.00
3:45 pm 15:45 Partly Cloudy 93 34 68 20 44 44 NNE 10 17 29.92 1013 10 16 0.00 0.00
4:45 pm 16:45 Partly Cloudy 93 34 68 20 44 44 NE 14 22 29.91 1013 10 16 0.00 0.00
5:45 pm 17:45 Partly Cloudy 93 34 66 19 41 41 NE 12 19 29.91 1013 10 16 0.00 0.00
6:45 pm 18:45 Partly Cloudy 91 33 66 19 44 44 ENE 10 17 29.91 1013 10 16 0.00 0.00
7:45 pm 19:45 Partly Cloudy 88 31 70 21 55 55 ENE 6 9 29.92 1013 10 16 0.00 0.00
8:45 pm 20:45 Mostly Clear 81 27 70 21 70 70 SE 7 11 29.93 1014 10 16 0.00 0.00
9:45 pm 21:45 Mostly Clear 79 26 73 23 84 84 E 5 7 29.95 1014 10 16 0.00 0.00
10:15 pm 22:15 Clear 79 25.9 73 22.7 83 83 E 5 7 29.95 1014 10 16 0.00 0.00
10:35 pm 22:35 Clear 77 25.2 73 22.7 86 86 Calm 29.95 1014 10 16 0.00 0.00
10:55 pm 22:55 Clear 78 25.6 73 22.7 84 84 E 5 7 29.96 1015 10 16 0.00 0.00
11:15 pm 23:15 Clear 77 25.2 73 22.5 85 85 E 5 7 29.96 1015 10 16 0.00 0.00
11:35 pm 23:35 Clear 77 25 73 22.5 86 86 E 5 7 29.96 1015 10 16 0.00 0.00
11:55 pm 23:55 Clear 78 25.3 72 22.4 84 84 ENE 3 6 29.96 1015 10 16 0.00 0.00

Powered by AerisWeather